Time,TemperatureF,DewpointF,PressureIn,WindDirection,WindDirectionDegrees,WindSpeedMPH,WindSpeedGustMPH,Humidity,HourlyPrecipIn,Conditions,Clouds,dailyrainin,SoftwareType,DateUTC
2013-06-02 00:03:00,68.0,-99.9,-100.00,East,80,0.0,1.0,89,-99.99,,,-99.99,,2013-06-02 04:03:00,
2013-06-02 00:13:00,68.0,65.0,-100.00,SSE,150,0.0,1.0,90,-99.99,,,-99.99,,2013-06-02 04:13:00,
2013-06-02 00:23:00,68.0,65.0,-100.00,SSW,205,1.0,1.0,91,-99.99,,,-99.99,,2013-06-02 04:23:00,
2013-06-02 00:33:00,68.0,64.0,-100.00,SSW,210,0.0,0.0,89,-99.99,,,-99.99,,2013-06-02 04:33:00,
2013-06-02 00:42:00,68.0,64.0,-100.00,SSW,210,0.0,0.0,89,-99.99,,,-99.99,,2013-06-02 04:42:00,
2013-06-02 00:53:00,68.0,66.0,-100.00,NW,305,1.0,1.0,93,-99.99,,,-99.99,,2013-06-02 04:53:00,
2013-06-02 01:03:00,68.0,64.0,-100.00,WNW,290,1.0,2.0,89,-99.99,,,-99.99,,2013-06-02 05:03:00,
2013-06-02 01:12:00,68.0,64.0,-100.00,ESE,115,1.0,1.0,89,-99.99,,,-99.99,,2013-06-02 05:12:00,
2013-06-02 01:22:00,68.0,64.0,-100.00,NE,45,0.0,4.0,89,-99.99,,,-99.99,,2013-06-02 05:22:00,
2013-06-02 01:32:00,69.0,65.0,-100.00,ESE,105,1.0,3.0,88,-99.99,,,-99.99,,2013-06-02 05:32:00,
2013-06-02 01:42:00,69.0,65.0,-100.00,ESE,105,1.0,3.0,88,-99.99,,,-99.99,,2013-06-02 05:42:00,
2013-06-02 01:52:00,68.0,64.0,-100.00,ENE,75,1.0,4.0,88,-99.99,,,-99.99,,2013-06-02 05:52:00,
2013-06-02 02:01:00,68.0,64.0,-100.00,ENE,75,1.0,4.0,88,-99.99,,,-99.99,,2013-06-02 06:01:00,
2013-06-02 02:12:00,67.0,64.0,-100.00,NW,315,3.0,4.0,90,-99.99,,,-99.99,,2013-06-02 06:12:00,
2013-06-02 02:21:00,67.0,64.0,-100.00,NW,315,2.0,4.0,89,-99.99,,,-99.99,,2013-06-02 06:21:00,
2013-06-02 02:32:00,67.0,64.0,-100.00,WNW,285,4.0,6.0,89,-99.99,,,-99.99,,2013-06-02 06:32:00,
2013-06-02 02:42:00,67.0,64.0,-100.00,WNW,285,4.0,6.0,89,-99.99,,,-99.99,,2013-06-02 06:42:00,
2013-06-02 02:52:00,69.0,65.0,-100.00,West,265,1.0,6.0,87,-99.99,,,-99.99,,2013-06-02 06:52:00,
2013-06-02 03:02:00,69.0,65.0,-100.00,West,265,1.0,6.0,87,-99.99,,,-99.99,,2013-06-02 07:02:00,
2013-06-02 03:11:00,69.0,65.0,-100.00,SSE,155,1.0,4.0,86,-99.99,,,-99.99,,2013-06-02 07:11:00,
2013-06-02 03:22:00,69.0,65.0,-100.00,SE,145,1.0,7.0,86,-99.99,,,-99.99,,2013-06-02 07:22:00,
2013-06-02 03:32:00,70.0,66.0,-100.00,South,190,1.0,5.0,86,-99.99,,,-99.99,,2013-06-02 07:32:00,
2013-06-02 03:42:00,70.0,66.0,-100.00,South,190,1.0,5.0,86,-99.99,,,-99.99,,2013-06-02 07:42:00,
2013-06-02 03:52:00,70.0,66.0,-100.00,West,260,1.0,3.0,87,-99.99,,,-99.99,,2013-06-02 07:52:00,
2013-06-02 04:02:00,71.0,66.0,-100.00,SW,215,2.0,5.0,86,-99.99,,,-99.99,,2013-06-02 08:02:00,
2013-06-02 04:12:00,71.0,67.0,-100.00,SW,235,2.0,6.0,87,-99.99,,,-99.99,,2013-06-02 08:12:00,
2013-06-02 04:22:00,71.0,71.0,-100.00,SW,215,3.0,6.0,99,-99.99,,,-99.99,,2013-06-02 08:22:00,
2013-06-02 04:32:00,72.0,71.0,-100.00,South,190,2.0,5.0,98,-99.99,,,-99.99,,2013-06-02 08:32:00,
2013-06-02 04:42:00,72.0,71.0,-100.00,South,190,2.0,5.0,98,-99.99,,,-99.99,,2013-06-02 08:42:00,
2013-06-02 04:52:00,71.0,70.0,-100.00,SSW,200,2.0,6.0,97,-99.99,,,-99.99,,2013-06-02 08:52:00,
2013-06-02 05:01:00,71.0,70.0,-100.00,SSW,200,4.0,6.0,96,-99.99,,,-99.99,,2013-06-02 09:01:00,
2013-06-02 05:11:00,71.0,66.0,-100.00,SW,230,2.0,4.0,85,-99.99,,,-99.99,,2013-06-02 09:11:00,
2013-06-02 05:21:00,71.0,70.0,-100.00,SSW,205,4.0,9.0,96,-99.99,,,-99.99,,2013-06-02 09:21:00,
2013-06-02 05:33:00,71.0,70.0,-100.00,South,190,4.0,10.0,97,-99.99,,,-99.99,,2013-06-02 09:33:00,
2013-06-02 05:43:00,71.0,70.0,-100.00,South,190,4.0,10.0,97,-99.99,,,-99.99,,2013-06-02 09:43:00,
2013-06-02 05:53:00,71.0,66.0,-100.00,SSW,210,3.0,8.0,85,-99.99,,,-99.99,,2013-06-02 09:53:00,
2013-06-02 06:02:00,71.0,66.0,-100.00,SSW,210,3.0,8.0,85,-99.99,,,-99.99,,2013-06-02 10:02:00,
2013-06-02 06:12:00,71.0,65.0,-100.00,SSE,150,1.0,7.0,84,-99.99,,,-99.99,,2013-06-02 10:12:00,
2013-06-02 06:23:00,71.0,65.0,-100.00,SW,215,2.0,5.0,84,-99.99,,,-99.99,,2013-06-02 10:23:00,
2013-06-02 06:33:00,70.0,65.0,-100.00,South,190,2.0,5.0,86,-99.99,,,-99.99,,2013-06-02 10:33:00,
2013-06-02 06:42:00,70.0,65.0,-100.00,South,190,2.0,5.0,86,-99.99,,,-99.99,,2013-06-02 10:42:00,
2013-06-02 06:52:00,70.0,65.0,-100.00,SW,230,1.0,5.0,86,-99.99,,,-99.99,,2013-06-02 10:52:00,
2013-06-02 07:02:00,70.0,65.0,-100.00,SW,230,1.0,5.0,86,-99.99,,,-99.99,,2013-06-02 11:02:00,
2013-06-02 07:12:00,70.0,66.0,-100.00,SSW,200,2.0,6.0,87,-99.99,,,-99.99,,2013-06-02 11:12:00,
2013-06-02 07:22:00,69.0,65.0,-100.00,SSW,205,2.0,6.0,87,-99.99,,,-99.99,,2013-06-02 11:22:00,
2013-06-02 07:32:00,69.0,65.0,-100.00,South,170,2.0,6.0,87,-99.99,,,-99.99,,2013-06-02 11:32:00,
2013-06-02 07:42:00,70.0,66.0,-100.00,SW,215,1.0,5.0,87,-99.99,,,-99.99,,2013-06-02 11:42:00,
2013-06-02 07:52:00,70.0,66.0,-100.00,SW,220,1.0,3.0,87,-99.99,,,-99.99,,2013-06-02 11:52:00,
2013-06-02 08:02:00,71.0,67.0,-100.00,SW,235,1.0,4.0,88,-99.99,,,-99.99,,2013-06-02 12:02:00,
2013-06-02 08:11:00,71.0,67.0,-100.00,SW,230,2.0,6.0,88,-99.99,,,-99.99,,2013-06-02 12:11:00,
2013-06-02 08:22:00,72.0,68.0,-100.00,WSW,240,4.0,7.0,90,-99.99,,,-99.99,,2013-06-02 12:22:00,
2013-06-02 08:32:00,74.0,72.0,-100.00,SW,220,3.0,9.0,93,-99.99,,,-99.99,,2013-06-02 12:32:00,
2013-06-02 08:42:00,74.0,72.0,-100.00,SW,220,3.0,9.0,93,-99.99,,,-99.99,,2013-06-02 12:42:00,
2013-06-02 08:52:00,74.0,71.0,-100.00,South,180,4.0,10.0,89,-99.99,,,-99.99,,2013-06-02 12:52:00,
2013-06-02 09:01:00,74.0,71.0,-100.00,South,180,4.0,10.0,89,-99.99,,,-99.99,,2013-06-02 13:01:00,
2013-06-02 09:12:00,73.0,70.0,-100.00,South,170,2.0,9.0,92,-99.99,,,-99.99,,2013-06-02 13:12:00,
2013-06-02 09:22:00,72.0,70.0,-100.00,South,170,3.0,10.0,91,-99.99,,,-99.99,,2013-06-02 13:22:00,
2013-06-02 09:32:00,73.0,71.0,-100.00,SSW,210,5.0,9.0,92,-99.99,,,-99.99,,2013-06-02 13:32:00,
2013-06-02 09:42:00,73.0,71.0,-100.00,SW,220,3.0,6.0,92,-99.99,,,-99.99,,2013-06-02 13:42:00,
2013-06-02 09:52:00,73.0,71.0,-100.00,SSW,195,4.0,9.0,92,-99.99,,,-99.99,,2013-06-02 13:52:00,
2013-06-02 10:02:00,73.0,71.0,-100.00,SSW,195,2.0,6.0,92,-99.99,,,-99.99,,2013-06-02 14:02:00,
2013-06-02 10:11:00,74.0,71.0,-100.00,SSW,200,4.0,7.0,92,-99.99,,,-99.99,,2013-06-02 14:11:00,
2013-06-02 10:22:00,74.0,71.0,-100.00,SSW,200,5.0,12.0,92,-99.99,,,-99.99,,2013-06-02 14:22:00,
2013-06-02 10:32:00,74.0,72.0,-100.00,SSW,210,3.0,9.0,92,-99.99,,,-99.99,,2013-06-02 14:32:00,
2013-06-02 10:42:00,74.0,72.0,-100.00,SSW,210,3.0,9.0,92,-99.99,,,-99.99,,2013-06-02 14:42:00,
2013-06-02 10:52:00,74.0,72.0,-100.00,SW,235,4.0,13.0,92,-99.99,,,-99.99,,2013-06-02 14:52:00,
2013-06-02 11:01:00,74.0,72.0,-100.00,SW,235,4.0,13.0,92,-99.99,,,-99.99,,2013-06-02 15:01:00,
2013-06-02 11:11:00,74.0,71.0,-100.00,SSW,205,4.0,11.0,92,-99.99,,,-99.99,,2013-06-02 15:11:00,
2013-06-02 11:22:00,74.0,72.0,-100.00,SSW,210,3.0,8.0,92,-99.99,,,-99.99,,2013-06-02 15:22:00,
2013-06-02 11:33:00,74.0,72.0,-100.00,SW,215,4.0,9.0,92,-99.99,,,-99.99,,2013-06-02 15:33:00,
2013-06-02 11:43:00,74.0,72.0,-100.00,SSW,205,2.0,9.0,92,-99.99,,,-99.99,,2013-06-02 15:43:00,
2013-06-02 11:53:00,74.0,72.0,-100.00,SW,235,2.0,9.0,93,-99.99,,,-99.99,,2013-06-02 15:53:00,
2013-06-02 12:03:00,74.0,72.0,-100.00,SW,220,3.0,6.0,93,-99.99,,,-99.99,,2013-06-02 16:03:00,
2013-06-02 12:13:00,76.0,73.0,-100.00,SW,225,3.0,6.0,90,-99.99,,,-99.99,,2013-06-02 16:13:00,
2013-06-02 12:23:00,77.0,73.0,-100.00,SSW,210,4.0,9.0,88,-99.99,,,-99.99,,2013-06-02 16:23:00,
2013-06-02 12:33:00,77.0,73.0,-100.00,WSW,255,3.0,7.0,86,-99.99,,,-99.99,,2013-06-02 16:33:00,
2013-06-02 12:42:00,77.0,73.0,-100.00,WSW,255,3.0,7.0,86,-99.99,,,-99.99,,2013-06-02 16:42:00,
2013-06-02 12:52:00,76.0,72.0,-100.00,South,170,2.0,11.0,87,-99.99,,,-99.99,,2013-06-02 16:52:00,
2013-06-02 13:02:00,76.0,72.0,-100.00,South,170,2.0,11.0,87,-99.99,,,-99.99,,2013-06-02 17:02:00,
2013-06-02 13:12:00,76.0,72.0,-100.00,South,185,5.0,11.0,87,-99.99,,,-99.99,,2013-06-02 17:12:00,
2013-06-02 13:23:00,76.0,73.0,-100.00,SSW,210,1.0,6.0,88,-99.99,,,-99.99,,2013-06-02 17:23:00,
2013-06-02 13:32:00,75.0,73.0,-100.00,South,190,4.0,6.0,93,-99.99,,,-99.99,,2013-06-02 17:32:00,
2013-06-02 13:42:00,75.0,73.0,-100.00,South,190,4.0,6.0,93,-99.99,,,-99.99,,2013-06-02 17:42:00,
2013-06-02 13:52:00,75.0,75.0,-100.00,SSE,160,2.0,10.0,99,-99.99,,,-99.99,,2013-06-02 17:52:00,
2013-06-02 14:02:00,75.0,75.0,-100.00,SSE,160,2.0,10.0,99,-99.99,,,-99.99,,2013-06-02 18:02:00,
2013-06-02 14:11:00,76.0,75.0,-100.00,SSW,200,4.0,11.0,97,-99.99,,,-99.99,,2013-06-02 18:11:00,
2013-06-02 14:21:00,76.0,75.0,-100.00,SSW,205,4.0,9.0,96,-99.99,,,-99.99,,2013-06-02 18:21:00,
2013-06-02 14:32:00,76.0,75.0,-100.00,South,185,4.0,9.0,95,-99.99,,,-99.99,,2013-06-02 18:32:00,
2013-06-02 14:42:00,76.0,75.0,-100.00,SE,140,3.0,9.0,95,-99.99,,,-99.99,,2013-06-02 18:42:00,
2013-06-02 14:52:00,77.0,75.0,-100.00,South,185,4.0,9.0,93,-99.99,,,-99.99,,2013-06-02 18:52:00,
2013-06-02 15:01:00,78.0,75.0,-100.00,SE,145,1.0,9.0,91,-99.99,,,-99.99,,2013-06-02 19:01:00,
2013-06-02 15:11:00,78.0,74.0,-100.00,SSW,205,2.0,9.0,88,-99.99,,,-99.99,,2013-06-02 19:11:00,
2013-06-02 15:22:00,79.0,74.0,-100.00,SSW,195,4.0,11.0,85,-99.99,,,-99.99,,2013-06-02 19:22:00,
2013-06-02 15:32:00,81.0,73.0,-100.00,SW,215,3.0,7.0,79,-99.99,,,-99.99,,2013-06-02 19:32:00,
2013-06-02 15:42:00,81.0,73.0,-100.00,SW,215,3.0,7.0,79,-99.99,,,-99.99,,2013-06-02 19:42:00,
2013-06-02 15:52:00,81.0,74.0,-100.00,SSE,155,1.0,7.0,81,-99.99,,,-99.99,,2013-06-02 19:52:00,
2013-06-02 16:02:00,81.0,74.0,-100.00,SE,140,5.0,11.0,81,-99.99,,,-99.99,,2013-06-02 20:02:00,
2013-06-02 16:11:00,81.0,75.0,-100.00,SE,130,5.0,11.0,81,-99.99,,,-99.99,,2013-06-02 20:11:00,
2013-06-02 16:22:00,80.0,74.0,-100.00,SSE,165,2.0,11.0,82,-99.99,,,-99.99,,2013-06-02 20:22:00,
2013-06-02 16:32:00,78.0,73.0,-100.00,SE,140,2.0,11.0,87,-99.99,,,-99.99,,2013-06-02 20:32:00,
2013-06-02 16:42:00,78.0,73.0,-100.00,SE,140,2.0,11.0,87,-99.99,,,-99.99,,2013-06-02 20:42:00,
2013-06-02 16:52:00,76.0,73.0,-100.00,SE,140,2.0,13.0,91,-99.99,,,-99.99,,2013-06-02 20:52:00,
2013-06-02 17:02:00,76.0,73.0,-100.00,SE,140,2.0,13.0,91,-99.99,,,-99.99,,2013-06-02 21:02:00,
2013-06-02 17:12:00,76.0,74.0,-100.00,SE,140,2.0,11.0,93,-99.99,,,-99.99,,2013-06-02 21:12:00,
2013-06-02 17:22:00,75.0,74.0,-100.00,SSW,210,4.0,8.0,99,-99.99,,,-99.99,,2013-06-02 21:22:00,
2013-06-02 17:33:00,72.0,72.0,-100.00,SW,215,1.0,9.0,99,-99.99,,,-99.99,,2013-06-02 21:33:00,
2013-06-02 17:42:00,72.0,72.0,-100.00,SW,215,1.0,9.0,99,-99.99,,,-99.99,,2013-06-02 21:42:00,
2013-06-02 17:53:00,72.0,72.0,-100.00,WNW,290,2.0,6.0,99,-99.99,,,-99.99,,2013-06-02 21:53:00,
2013-06-02 18:03:00,72.0,72.0,-100.00,WNW,290,2.0,6.0,99,-99.99,,,-99.99,,2013-06-02 22:03:00,
2013-06-02 18:12:00,73.0,73.0,-100.00,SSW,195,1.0,7.0,99,-99.99,,,-99.99,,2013-06-02 22:12:00,
2013-06-02 18:23:00,73.0,73.0,-100.00,SW,230,1.0,5.0,99,-99.99,,,-99.99,,2013-06-02 22:23:00,
2013-06-02 18:33:00,73.0,73.0,-100.00,WSW,240,1.0,4.0,99,-99.99,,,-99.99,,2013-06-02 22:33:00,
2013-06-02 18:42:00,72.0,72.0,-100.00,SSE,155,1.0,5.0,99,-99.99,,,-99.99,,2013-06-02 22:42:00,
2013-06-02 18:52:00,72.0,72.0,-100.00,NW,305,3.0,5.0,99,-99.99,,,-99.99,,2013-06-02 22:52:00,
2013-06-02 19:02:00,72.0,72.0,-100.00,NW,305,3.0,5.0,99,-99.99,,,-99.99,,2013-06-02 23:02:00,
2013-06-02 19:12:00,71.0,71.0,-100.00,NW,325,1.0,6.0,99,-99.99,,,-99.99,,2013-06-02 23:12:00,
2013-06-02 19:22:00,71.0,70.0,-100.00,NW,315,1.0,4.0,99,-99.99,,,-99.99,,2013-06-02 23:22:00,
2013-06-02 19:32:00,70.0,70.0,-100.00,NW,315,1.0,1.0,99,-99.99,,,-99.99,,2013-06-02 23:32:00,
2013-06-02 19:42:00,70.0,70.0,-100.00,NW,315,1.0,1.0,99,-99.99,,,-99.99,,2013-06-02 23:42:00,
2013-06-02 19:52:00,70.0,70.0,-100.00,SW,215,0.0,1.0,99,-99.99,,,-99.99,,2013-06-02 23:52:00,
2013-06-02 20:01:00,70.0,70.0,-100.00,SW,215,0.0,1.0,99,-99.99,,,-99.99,,2013-06-03 00:01:00,
2013-06-02 20:12:00,70.0,70.0,-100.00,WSW,245,0.0,1.0,99,-99.99,,,-99.99,,2013-06-03 00:12:00,
2013-06-02 20:22:00,70.0,70.0,-100.00,SSE,155,0.0,2.0,99,-99.99,,,-99.99,,2013-06-03 00:22:00,
2013-06-02 20:32:00,70.0,70.0,-100.00,NE,50,2.0,4.0,99,-99.99,,,-99.99,,2013-06-03 00:32:00,
2013-06-02 20:42:00,70.0,70.0,-100.00,NE,50,2.0,4.0,99,-99.99,,,-99.99,,2013-06-03 00:42:00,
2013-06-02 20:52:00,69.0,69.0,-100.00,NNE,25,1.0,4.0,99,-99.99,,,-99.99,,2013-06-03 00:52:00,
2013-06-02 21:01:00,69.0,69.0,-100.00,NNE,25,1.0,4.0,99,-99.99,,,-99.99,,2013-06-03 01:01:00,
2013-06-02 21:11:00,69.0,69.0,-100.00,North,0,2.0,4.0,99,-99.99,,,-99.99,,2013-06-03 01:11:00,
2013-06-02 21:21:00,69.0,69.0,-100.00,NNE,30,1.0,4.0,99,-99.99,,,-99.99,,2013-06-03 01:21:00,
2013-06-02 21:32:00,69.0,68.0,-100.00,NNE,15,0.0,4.0,99,-99.99,,,-99.99,,2013-06-03 01:32:00,
2013-06-02 21:42:00,69.0,68.0,-100.00,NNE,15,0.0,4.0,99,-99.99,,,-99.99,,2013-06-03 01:42:00,
2013-06-02 21:52:00,68.0,68.0,-100.00,NNW,335,2.0,3.0,99,-99.99,,,-99.99,,2013-06-03 01:52:00,
2013-06-02 22:02:00,68.0,68.0,-100.00,NNW,335,2.0,3.0,99,-99.99,,,-99.99,,2013-06-03 02:02:00,
2013-06-02 22:12:00,68.0,68.0,-100.00,NW,305,1.0,2.0,99,-99.99,,,-99.99,,2013-06-03 02:12:00,
2013-06-02 22:22:00,68.0,68.0,-100.00,NNW,330,1.0,4.0,99,-99.99,,,-99.99,,2013-06-03 02:22:00,
2013-06-02 22:32:00,67.0,67.0,-100.00,NNW,340,0.0,2.0,99,-99.99,,,-99.99,,2013-06-03 02:32:00,
2013-06-02 22:42:00,67.0,67.0,-100.00,NNW,340,0.0,2.0,99,-99.99,,,-99.99,,2013-06-03 02:42:00,
2013-06-02 22:52:00,67.0,67.0,-100.00,SSE,160,1.0,2.0,99,-99.99,,,-99.99,,2013-06-03 02:52:00,
2013-06-02 23:02:00,67.0,67.0,-100.00,SSE,165,0.0,2.0,99,-99.99,,,-99.99,,2013-06-03 03:02:00,
2013-06-02 23:12:00,67.0,67.0,-100.00,South,180,1.0,2.0,99,-99.99,,,-99.99,,2013-06-03 03:12:00,
2013-06-02 23:22:00,67.0,67.0,-100.00,West,280,1.0,1.0,99,-99.99,,,-99.99,,2013-06-03 03:22:00,
2013-06-02 23:33:00,67.0,67.0,-100.00,SSE,160,0.0,2.0,99,-99.99,,,-99.99,,2013-06-03 03:33:00,
2013-06-02 23:43:00,67.0,67.0,-100.00,SSE,160,0.0,2.0,99,-99.99,,,-99.99,,2013-06-03 03:43:00,
2013-06-02 23:53:00,67.0,67.0,-100.00,ESE,115,0.0,1.0,99,-99.99,,,-99.99,,2013-06-03 03:53:00,